Content
SEND FEEDBACK

Daily
Averages
Monthly
Summary
United States of America

BLACK HAWK, SOUTH DAKOTA


Home > North America > United States > South Dakota
Elevation: 3352 feet     Latitude: 44 05N     Longitude: 103 16W

WEATHER
 
SELECT A DAY
Number of Records: 204,161;   Date Range: 1/1/95 - 8/12/14
 
SHARE

PRINT THIS DATA

[ ← Previous Day ]
WEATHER ALMANAC - APRIL 1, 2014
[ Next Day → ]
[ °C ]   °F
Weather ElementAverageHighLow
Temperature21.3 °F24.8 °F (9:01 pm)14.9 °F (2:58 am)
Dewpoint17.9 °F21.6 °F (8:58 pm)10.4 °F (6:48 am)
Humidity86.6 %93 % (5:40 pm)78 % (6:58 am)
Barometer30.00 in30.16 in (1:58 am)29.91 in (4:48 pm)
Wind Speed11.5 mph17.3 mph (5:47 pm)
Weather ElementAverage
Visibility8.3 mi
Wind DirectionESE (126.2 °)

Weather ElementTotal
Precipitation---
Heating Degree Days45.2 (Base 65)
Averaged from 58 records on April 1, 2014
WEATHER CONDITIONS BREAKOUT
WIND DIRECTION BREAKOUT
WEATHER BY HOUR - APRIL 1, 2014
[ °C ]   °F
Local TimeTemperatureDewpointHumidityBarometerVisibilityWind DirectionWind SpeedGust SpeedPrecipitationEventsConditions
1:58 AM17.1 °F14.0 °F88 %30.16 in10.0 miNorth (10°)4.6 mphClear
2:58 AM14.9 °F12.2 °F89 %30.14 in10.0 miNorth (10°)5.8 mphClear
3:08 AM15.8 °F12.2 °F86 %29.99 in10.0 miNorth (10°)6.9 mphMostly Cloudy
3:38 AM15.8 °F12.2 °F86 %29.99 in10.0 miNorth (10°)4.6 mphOvercast
3:43 AM15.8 °F12.2 °F86 %29.99 in10.0 miNorth (10°)4.6 mphOvercast
3:58 AM15.3 °F12.0 °F87 %30.15 in10.0 miNorth (10°)6.9 mphOvercast
4:58 AM16.0 °F12.0 °F84 %30.14 in10.0 miSSE (160°)4.6 mphOvercast
5:58 AM16.3 °F11.7 °F82 %30.14 in10.0 miSSE (160°)6.9 mphOvercast
6:48 AM15.8 °F10.4 °F79 %29.97 in10.0 miSE (130°)6.9 mphOvercast
6:58 AM16.5 °F10.8 °F78 %30.12 in10.0 miESE (110°)6.9 mphOvercast
7:38 AM17.6 °F12.2 °F79 %29.96 in10.0 miCalmOvercast
7:58 AM16.9 °F11.5 °F79 %30.11 in10.0 miESE (110°)5.8 mphOvercast
8:58 AM18.5 °F12.9 °F79 %30.11 in10.0 miSSE (150°)10.4 mphOvercast
9:38 AM19.4 °F14.0 °F80 %29.96 in10.0 miSE (140°)12.7 mphOvercast
9:50 AM19.4 °F15.8 °F86 %29.96 in6.0 miSSE (150°)12.7 mphSnowLight Snow
9:58 AM19.6 °F15.6 °F85 %30.11 in1.5 miSE (140°)12.7 mph0.00 inSnowLight Snow
10:22 AM21.2 °F17.6 °F86 %29.96 in1.0 miSE (140°)12.7 mphSnowLight Snow
10:58 AM21.2 °F17.6 °F86 %30.10 in0.8 miSE (140°)12.7 mph0.00 inSnowLight Snow
11:10 AM21.2 °F17.6 °F86 %29.95 in0.5 miSE (140°)12.7 mphSnowLight Snow
11:26 AM21.2 °F17.6 °F86 %29.95 in0.8 miSE (140°)13.8 mphSnowLight Snow
11:35 AM21.2 °F17.6 °F86 %29.95 in1.0 miSE (140°)13.8 mphSnowLight Snow
11:52 AM21.2 °F17.6 °F86 %29.95 in1.0 miSE (140°)13.8 mphSnowLight Snow
12:08 PM23.0 °F19.4 °F86 %29.94 in2.0 miSE (140°)13.8 mphSnowLight Snow
12:29 PM23.0 °F19.4 °F86 %29.93 in1.5 miSE (140°)12.7 mphSnowLight Snow
12:58 PM22.5 °F19.2 °F87 %30.07 in2.0 miSE (130°)13.8 mph0.00 inSnowLight Snow
1:06 PM23.0 °F19.4 °F86 %29.92 in3.0 miSE (140°)11.5 mphSnowLight Snow
1:41 PM23.0 °F19.4 °F86 %29.92 in10.0 miSSE (150°)9.2 mphOvercast
1:58 PM23.0 °F19.4 °F86 %30.07 in10.0 miSE (130°)10.4 mph0.00 inOvercast
2:58 PM22.3 °F18.1 °F84 %30.08 in10.0 miSE (140°)12.7 mphOvercast
3:07 PM23.0 °F17.6 °F80 %29.92 in10.0 miSE (140°)13.8 mphOvercast
3:58 PM22.5 °F19.2 °F87 %30.07 in10.0 miSSE (150°)15.0 mphOvercast
4:48 PM23.0 °F19.4 °F86 %29.91 in10.0 miSSE (150°)13.8 mphOvercast
4:53 PM23.0 °F19.4 °F86 %29.91 in10.0 miSSE (150°)13.8 mphOvercast
4:58 PM23.2 °F19.9 °F87 %30.07 in10.0 miSE (140°)12.7 mphOvercast
5:00 PM23.0 °F19.4 °F86 %29.91 in10.0 miSSE (150°)13.8 mphOvercast
5:40 PM23.0 °F21.2 °F93 %29.91 in10.0 miSSE (150°)16.1 mphScattered Clouds
5:42 PM23.0 °F19.4 °F86 %29.91 in10.0 miSSE (150°)16.1 mphMostly Cloudy
5:47 PM23.0 °F19.4 °F86 %29.91 in10.0 miSE (140°)17.3 mphScattered Clouds
5:58 PM23.0 °F20.1 °F89 %30.06 in10.0 miSE (140°)15.0 mphScattered Clouds
6:08 PM23.0 °F21.2 °F93 %29.91 in10.0 miSE (140°)13.8 mphMostly Cloudy
6:23 PM23.0 °F21.2 °F93 %29.92 in10.0 miSSE (150°)13.8 mphMostly Cloudy
6:33 PM23.0 °F21.2 °F93 %29.92 in10.0 miSE (140°)15.0 mphScattered Clouds
6:35 PM23.0 °F21.2 °F93 %29.92 in10.0 miSE (140°)13.8 mphScattered Clouds
6:36 PM23.0 °F21.2 °F93 %29.92 in10.0 miSE (140°)15.0 mphScattered Clouds
6:58 PM23.2 °F20.5 °F89 %30.08 in10.0 miSE (130°)12.7 mphMostly Cloudy
7:08 PM23.0 °F21.2 °F93 %29.92 in10.0 miSSE (150°)11.5 mphOvercast
7:13 PM23.0 °F21.2 °F93 %29.92 in10.0 miSSE (150°)12.7 mphOvercast
7:18 PM23.0 °F21.2 °F93 %29.93 in10.0 miSSE (150°)12.7 mphOvercast
7:58 PM23.7 °F21.2 °F90 %30.08 in10.0 miSSE (160°)12.7 mphOvercast
8:58 PM24.3 °F21.6 °F89 %30.08 in10.0 miSSE (150°)12.7 mphOvercast
9:01 PM24.8 °F21.2 °F86 %29.94 in10.0 miSSE (150°)11.5 mphOvercast
9:11 PM24.8 °F21.2 °F86 %29.94 in10.0 miSSE (150°)11.5 mphOvercast
9:37 PM24.8 °F21.2 °F86 %29.94 in10.0 miSSE (150°)11.5 mphOvercast
9:58 PM24.8 °F21.4 °F87 %30.08 in10.0 miSE (140°)12.7 mphOvercast
10:28 PM24.8 °F21.2 °F86 %29.94 in10.0 miSE (130°)10.4 mphOvercast
10:58 PM24.4 °F19.9 °F83 %30.08 in10.0 miSE (140°)12.7 mphOvercast
11:48 PM23.0 °F21.2 °F93 %29.94 in10.0 miSE (140°)13.8 mphOvercast
11:58 PM23.9 °F20.7 °F87 %30.08 in10.0 miSE (140°)12.7 mphOvercast
Hourly data recorded from KRCA, located miles away from Black Hawk, South Dakota







STORIES FROM OUR PARTNERS